Flag for U.S.A. Weather past 2 weeks in Arden-Arcade, California, U.S.A.

Now
75 °F

Scattered clouds.


Feels Like: 78 °F
Forecast: 66 / 97 °F
Wind: 5 mph from Southwest

Location: Mather Field

Current Time: Jul 4, 2015 at 10:26:02 AM

Latest Report: Jul 4, 2015 at 9:45 AM


Visibility: 10 mi

Pressure: 29.82 "Hg

Humidity: 54%

Dew point: 57 °F

Location of Arden-ArcadeLocation

Historic Weather in Arden-Arcade — Graph

°F

Arden-Arcade temperature yesterday

Maximum temperature yesterday: 99 °F (at 5:47 PM)
Minimum temperature yesterday: 66 °F (at 6:50 AM)
Average temperature yesterday: 79 °F

Past Weeks' High & Low Weather Summary

 TemperatureHumidityPressure
High106 °F (Jun 30, 5:45 PM)94% (Jun 29, 4:50 AM)30.02 "Hg (Jun 29, 4:50 AM)
Low50 °F (Jun 22, 4:45 AM)13% (Jun 20, 5:50 PM)29.74 "Hg (Jun 30, 5:45 PM)
Average79 °F40%29.88 "Hg
* Reported Jun 19 8:45 AM — Jul 4 8:45 AM, Arden-Arcade, Weather by CustomWeather, © 2015

Note: Actual official high and low records may vary slightly from our data, if they occured in-between our weather recording intervals... More about our weather records

Advertising

Arden-Arcade weather history for previous 24 hours

 ConditionsComfort  
Time TempWeatherWind HumidityBarometerVisibility
8:45 AM
Sat, Jul 4
68 °FScattered clouds.3 mph69%29.83 "Hg10 mi
7:45 AM64 °FScattered clouds.8 mph78%29.83 "Hg10 mi
6:45 AM63 °FPassing clouds.5 mph83%29.82 "Hg10 mi
5:45 AM64 °FPassing clouds.6 mph78%29.82 "Hg10 mi
4:45 AM64 °FPassing clouds.5 mph78%29.81 "Hg10 mi
3:45 AM66 °FPassing clouds.8 mph73%29.80 "Hg10 mi
2:45 AM66 °FClear.3 mph68%29.81 "Hg10 mi
10:58 PM
Fri, Jul 3
73 °FClear.7 mph57%29.82 "Hg10 mi
9:45 PM77 °FClear.7 mph54%29.80 "Hg10 mi
7:55 PM88 °FSunny.14 mph38%29.78 "Hg10 mi
6:45 PM95 °FSunny.10 mph26%29.77 "Hg10 mi
5:47 PM99 °FSunny.10 mph24%29.77 "Hg10 mi
3:50 PM95 °FScattered clouds.6 mph25%29.81 "Hg10 mi
2:45 PM93 °FScattered clouds.6 mph23%29.83 "Hg10 mi
1:45 PM90 °FScattered clouds.5 mph29%29.86 "Hg10 mi
12:45 PM84 °FScattered clouds.7 mph37%29.88 "Hg10 mi
11:45 AM79 °FPartly sunny.3 mph45%29.91 "Hg10 mi
10:45 AM73 °FPartly sunny.8 mph53%29.92 "Hg10 mi
Weather by CustomWeather, © 2015

See weather overviewHow to use our weather pages